Home   Weather   Lampertheim   Past weeks

Flag for Germany Past Weather in Lampertheim, Hesse, Germany — Yesterday and Last 2 Weeks

Now
73 °F

Passing clouds.


Feels Like: 77 °F
Forecast: 56 / 75 °F
Wind: 9 mph from West

Location: Mannheim City

Current Time: Sep 28, 2016 at 5:34:54 PM

Latest Report: Sep 28, 2016 at 4:50 PM


Visibility: N/A

Pressure: 30.30 "Hg

Humidity: 44%

Dew Point: 50 °F

Location of LampertheimLocation

Past Weather in Lampertheim — Graph

°F

Lampertheim Temperature Yesterday

Maximum temperature yesterday: 70 °F (at 5:20 PM)
Minimum temperature yesterday: 57 °F (at 6:20 AM)
Average temperature yesterday: 63 °F

High & Low Weather Summary for the Past Weeks

 TemperatureHumidityPressure
High91 °F (Sep 13, 4:50 PM)100% (Sep 14, 7:20 AM)30.39 "Hg (Sep 14, 7:20 AM)
Low45 °F (Sep 22, 5:50 AM)24% (Sep 14, 4:50 PM)29.80 "Hg (Sep 15, 5:50 AM)
Average66 °F68%30.09 "Hg
* Reported Sep 13 4:20 PM — Sep 28 4:20 PM, Lampertheim, Weather by CustomWeather, © 2016

Note: Actual official high and low records may vary slightly from our data, if they occured in-between our weather recording intervals... More about our weather records

Advertising

Lampertheim Weather History for the Previous 24 Hours

Scroll right to see more
 ConditionsComfort  
Time TempWeatherWind HumidityBarometerVisibility
4:20 PM
Wed, Sep 28
75 °FPassing clouds.12 mph44%30.33 "HgN/A
3:50 PM73 °FPassing clouds.9 mph44%30.33 "HgN/A
3:20 PM73 °FPassing clouds.9 mph44%30.33 "HgN/A
2:50 PM73 °FPassing clouds.8 mph41%30.33 "HgN/A
2:20 PM73 °FPassing clouds.9 mph38%30.33 "HgN/A
1:50 PM72 °FPassing clouds.8 mph44%30.36 "HgN/A
1:20 PM70 °FPassing clouds.7 mph50%30.36 "HgN/A
12:50 PM70 °FPassing clouds.7 mph57%30.36 "HgN/A
12:20 PM68 °FPassing clouds.7 mph60%30.36 "HgN/A
11:50 AM66 °FPassing clouds.6 mph64%30.39 "HgN/A
11:20 AM64 °FSunny.8 mph68%30.39 "Hg10 mi
10:50 AM63 °FPassing clouds.6 mph77%30.39 "HgN/A
10:20 AM61 °FPassing clouds.6 mph94%30.39 "HgN/A
9:50 AM57 °FPassing clouds.6 mph100%30.39 "HgN/A
9:20 AM55 °FPassing clouds.5 mph100%30.36 "HgN/A
8:50 AM54 °FPassing clouds.6 mph100%30.36 "HgN/A
8:20 AM54 °FPassing clouds.6 mph100%30.36 "HgN/A
7:50 AM54 °FPartly sunny.7 mph100%30.36 "Hg4 mi
7:20 AM54 °FClear.3 mph100%30.36 "Hg10 mi
6:50 AM54 °FClear.3 mph100%30.36 "Hg10 mi
6:20 AM54 °FClear.3 mph100%30.36 "Hg10 mi
5:50 AM54 °FClear.2 mph100%30.36 "Hg10 mi
9:20 PM
Tue, Sep 27
59 °FClear.2 mph100%30.33 "Hg10 mi
8:50 PM59 °FClear.1 mph100%30.33 "Hg10 mi
7:50 PM63 °FClear.1 mph88%30.33 "Hg10 mi
7:20 PM63 °FClear.2 mph83%30.33 "Hg10 mi
6:50 PM68 °FSunny.1 mph64%30.33 "Hg10 mi
6:20 PM70 °FMild.1 mph60%30.30 "HgN/A
5:50 PM70 °FSunny.1 mph60%30.30 "Hg10 mi
5:20 PM70 °FSunny.3 mph64%30.30 "Hg10 mi
Weather by CustomWeather, © 2016

See weather overviewHow to use our weather pages